TimePST,TemperatureF,Dew PointF,Humidity,Sea Level PressureIn,VisibilityMPH,Wind Direction,Wind SpeedMPH,Gust SpeedMPH,PrecipitationIn,Events,Conditions,WindDirDegrees,DateUTC
12:56 AM,32.0,17.1,54,29.86,10.0,North,6.9,-,N/A,,Clear,350,2013-03-07 08:56:00
1:56 AM,28.9,16.0,58,29.86,10.0,Calm,Calm,-,N/A,,Clear,0,2013-03-07 09:56:00
2:56 AM,30.0,16.0,56,29.84,10.0,Calm,Calm,-,N/A,,Partly Cloudy,0,2013-03-07 10:56:00
3:56 AM,26.1,16.0,66,29.84,10.0,SSW,3.5,-,N/A,,Mostly Cloudy,210,2013-03-07 11:56:00
4:56 AM,26.1,17.1,69,29.85,10.0,WSW,4.6,-,N/A,,Overcast,240,2013-03-07 12:56:00
5:56 AM,26.1,16.0,66,29.85,10.0,SW,4.6,-,N/A,,Scattered Clouds,220,2013-03-07 13:56:00
6:19 AM,28.4,17.6,64,29.92,10.0,WSW,5.8,-,N/A,,Mostly Cloudy,240,2013-03-07 14:19:00
6:56 AM,28.9,18.0,64,29.85,10.0,West,3.5,-,N/A,,Overcast,260,2013-03-07 14:56:00
7:56 AM,33.1,19.0,56,29.85,10.0,SSW,3.5,-,N/A,,Overcast,210,2013-03-07 15:56:00
8:56 AM,35.1,18.0,50,29.86,10.0,SSW,5.8,-,N/A,,Overcast,210,2013-03-07 16:56:00
9:56 AM,37.9,21.9,53,29.86,10.0,SSE,9.2,-,N/A,,Overcast,160,2013-03-07 17:56:00
10:56 AM,37.0,27.0,67,29.85,4.0,Variable,3.5,-,0.00,Snow,Light Snow,0,2013-03-07 18:56:00
11:56 AM,39.0,28.0,65,29.84,9.0,Calm,Calm,-,0.00,,Overcast,0,2013-03-07 19:56:00
12:35 PM,39.2,28.4,65,29.90,4.0,Calm,Calm,-,0.00,,Unknown,0,2013-03-07 20:35:00
12:56 PM,39.0,28.9,67,29.82,7.0,Calm,Calm,-,0.00,,Overcast,0,2013-03-07 20:56:00
1:56 PM,41.0,28.9,62,29.80,10.0,Variable,4.6,-,N/A,,Overcast,0,2013-03-07 21:56:00
2:56 PM,45.0,28.0,52,29.79,10.0,Variable,6.9,-,N/A,,Overcast,0,2013-03-07 22:56:00
3:56 PM,45.0,27.0,49,29.79,10.0,NNE,8.1,-,N/A,,Overcast,20,2013-03-07 23:56:00
4:56 PM,43.0,28.0,56,29.78,10.0,NNE,9.2,-,N/A,,Overcast,20,2013-03-08 00:56:00
5:56 PM,41.0,28.9,62,29.78,10.0,NNE,8.1,-,N/A,,Overcast,20,2013-03-08 01:56:00
6:56 PM,39.9,30.0,68,29.79,10.0,NNE,5.8,-,N/A,,Mostly Cloudy,20,2013-03-08 02:56:00
7:56 PM,36.0,28.0,73,29.79,10.0,North,4.6,-,N/A,,Mostly Cloudy,10,2013-03-08 03:56:00
8:56 PM,35.1,28.0,76,29.79,10.0,Calm,Calm,-,N/A,,Mostly Cloudy,0,2013-03-08 04:56:00
9:56 PM,36.0,28.9,76,29.79,10.0,Calm,Calm,-,N/A,,Mostly Cloudy,0,2013-03-08 05:56:00
10:56 PM,33.1,27.0,78,29.78,10.0,WNW,3.5,-,N/A,,Mostly Cloudy,290,2013-03-08 06:56:00
11:56 PM,34.0,28.0,79,29.77,10.0,Calm,Calm,-,N/A,,Overcast,0,2013-03-08 07:56:00